Weather History for Claremore, OK

Change the Weather History Date:

Tuesday, May 28, 2013

  Actual Average (KTUL) Record (KTUL)
Temperature  
Mean Temperature 74 °F 72 °F  
Max Temperature 80 °F 82 °F 94 °F (1926)
Min Temperature 69 °F 63 °F 45 °F (1947)
Cooling Degree Days 10 8  
Month to date cooling degree days 144  
Year to date cooling degree days 209  
Growing Degree Days 24 (Base 50)    
Moisture  
Dew Point 65 °F    
Average Humidity 72    
Maximum Humidity 83    
Minimum Humidity 61    
Precipitation  
Precipitation 0.00 in 0.19 in 2.08 in (1905)
Month to date precipitation 5.35  
Year to date precipitation 15.94  
Sea Level Pressure  
Sea Level Pressure 29.82 in    
Wind  
Wind Speed 15 mph (South)    
Max Wind Speed 28 mph    
Max Gust Speed 37 mph    
Visibility 10 miles    
Events Rain , Thunderstorm    
T = Trace of Precipitation, MM = Missing Value Source: NWS Daily Summary

Daily Weather History Graph

Daily Weather History Graph

Search for Another Location

Airport:

Trip Planner

Search our weather history database for the weather conditions in past years. The results will help you decide how hot, cold, wet, or windy it might be!

Date:

Astronomy

May. 28, 2013 Rise Set
Actual Time 6:07 AM CDT 8:31 PM CDT
Civil Twilight 5:37 AM CDT 9:01 PM CDT
Nautical Twilight 5:01 AM CDT 9:37 PM CDT
Astronomical Twilight 4:20 AM CDT 10:18 PM CDT
Moon 11:59 PM CDT (5/28) 9:53 AM CDT (5/28)
Length of Visible Light 15h 23m
Length of Day
14h 24m
Waning Gibbous, 82% of the Moon is Illuminated
May 28
Waning Gibbous
May 31
Last Quarter
Jun 8
New
Jun 16
First Quarter
Jun 23
Full

Hourly Weather History & Observations

Time (CDT) Temp. Heat Index Dew Point Humidity Pressure Visibility Wind Dir Wind Speed Gust Speed Precip Events Conditions
12:15 AM 73.4 °F - 64.4 °F 73% 29.78 in 10.0 mi SSE 17.3 mph 23.0 mph N/A   Clear
12:35 AM 73.4 °F - 64.4 °F 73% 29.78 in 10.0 mi SSE 17.3 mph 23.0 mph N/A   Clear
12:55 AM 73.4 °F - 64.4 °F 73% 29.80 in 10.0 mi South 15.0 mph 20.7 mph N/A   Clear
1:15 AM 73.4 °F - 64.4 °F 73% 29.80 in 10.0 mi South 16.1 mph 21.9 mph N/A   Clear
1:35 AM 73.4 °F - 64.4 °F 73% 29.80 in 10.0 mi South 11.5 mph 17.3 mph N/A   Clear
1:55 AM 73.4 °F - 64.4 °F 73% 29.78 in 10.0 mi South 12.7 mph 20.7 mph N/A   Clear
2:15 AM 73.4 °F - 64.4 °F 73% 29.78 in 10.0 mi South 11.5 mph 19.6 mph N/A   Clear
2:35 AM 73.4 °F - 64.4 °F 73% 29.77 in 10.0 mi SSE 11.5 mph 18.4 mph N/A   Clear
2:55 AM 71.6 °F - 64.4 °F 78% 29.79 in 10.0 mi South 10.4 mph - N/A   Clear
3:15 AM 71.6 °F - 64.4 °F 78% 29.79 in 10.0 mi South 10.4 mph - N/A   Clear
3:35 AM 71.6 °F - 64.4 °F 78% 29.79 in 10.0 mi South 9.2 mph 17.3 mph N/A   Clear
3:55 AM 71.6 °F - 64.4 °F 78% 29.79 in 10.0 mi South 10.4 mph - N/A   Clear
4:15 AM 71.6 °F - 64.4 °F 78% 29.79 in 10.0 mi South 10.4 mph - N/A   Clear
4:35 AM 71.6 °F - 64.4 °F 78% 29.78 in 10.0 mi South 10.4 mph 18.4 mph N/A   Clear
4:55 AM 73.4 °F - 64.4 °F 73% 29.79 in 10.0 mi South 16.1 mph 23.0 mph N/A   Scattered Clouds
5:15 AM 73.4 °F - 66.2 °F 78% 29.79 in 10.0 mi South 16.1 mph 24.2 mph N/A   Mostly Cloudy
5:35 AM 73.4 °F - 66.2 °F 78% 29.80 in 10.0 mi South 19.6 mph 26.5 mph N/A   Overcast
5:55 AM 73.4 °F - 66.2 °F 78% 29.80 in 10.0 mi South 18.4 mph 24.2 mph N/A   Mostly Cloudy
6:15 AM 73.4 °F - 66.2 °F 78% 29.80 in 10.0 mi South 18.4 mph 24.2 mph N/A   Scattered Clouds
6:35 AM 71.6 °F - 66.2 °F 83% 29.81 in 10.0 mi South 13.8 mph 23.0 mph N/A   Mostly Cloudy
6:55 AM 71.6 °F - 66.2 °F 83% 29.82 in 10.0 mi South 16.1 mph 23.0 mph N/A   Mostly Cloudy
7:15 AM 71.6 °F - 66.2 °F 83% 29.82 in 10.0 mi South 15.0 mph 21.9 mph N/A   Mostly Cloudy
7:35 AM 71.6 °F - 66.2 °F 83% 29.83 in 10.0 mi South 16.1 mph 20.7 mph N/A   Scattered Clouds
7:55 AM 71.6 °F - 66.2 °F 83% 29.83 in 10.0 mi South 15.0 mph 20.7 mph N/A   Clear
8:15 AM 73.4 °F - 66.2 °F 78% 29.83 in 10.0 mi South 20.7 mph 28.8 mph N/A   Clear
8:35 AM 73.4 °F - 64.4 °F 73% 29.83 in 10.0 mi South 18.4 mph 25.3 mph N/A   Scattered Clouds
8:55 AM 73.4 °F - 64.4 °F 73% 29.83 in 10.0 mi SSW 16.1 mph 27.6 mph N/A   Scattered Clouds
9:15 AM 71.6 °F - 64.4 °F 78% 29.84 in 10.0 mi SSW 15.0 mph 23.0 mph N/A Rain Light Rain
9:35 AM 69.8 °F - 64.4 °F 83% 29.85 in 10.0 mi SSW 15.0 mph 23.0 mph N/A Rain , Thunderstorm Light Thunderstorms and Rain
9:55 AM 69.8 °F - 64.4 °F 83% 29.84 in 10.0 mi SSW 15.0 mph 21.9 mph N/A Rain Light Rain
10:15 AM 71.6 °F - 66.2 °F 83% 29.85 in 10.0 mi South 17.3 mph 26.5 mph N/A   Scattered Clouds
10:35 AM 71.6 °F - 66.2 °F 83% 29.85 in 10.0 mi South 13.8 mph 21.9 mph N/A   Clear
10:55 AM 73.4 °F - 66.2 °F 78% 29.84 in 10.0 mi South 18.4 mph 28.8 mph N/A   Clear
11:15 AM 75.2 °F - 66.2 °F 73% 29.85 in 10.0 mi South 16.1 mph 24.2 mph N/A   Clear
11:35 AM 73.4 °F - 66.2 °F 78% 29.85 in 10.0 mi South 15.0 mph 23.0 mph N/A   Clear
11:55 AM 75.2 °F - 66.2 °F 73% 29.85 in 10.0 mi South 18.4 mph 27.6 mph N/A   Clear
12:15 PM 77.0 °F - 66.2 °F 69% 29.84 in 10.0 mi South 23.0 mph 31.1 mph N/A   Clear
12:35 PM 78.8 °F - 66.2 °F 65% 29.85 in 10.0 mi South 24.2 mph 33.4 mph N/A   Clear
12:55 PM 78.8 °F - 64.4 °F 61% 29.85 in 10.0 mi South 27.6 mph 34.5 mph N/A   Clear
1:15 PM 77.0 °F - 64.4 °F 65% 29.85 in 10.0 mi South 20.7 mph 36.8 mph N/A   Clear
1:35 PM 77.0 °F - 64.4 °F 65% 29.84 in 10.0 mi South 20.7 mph 28.8 mph N/A   Clear
1:55 PM 77.0 °F - 64.4 °F 65% 29.85 in 10.0 mi South 19.6 mph 35.7 mph N/A   Clear
2:15 PM 78.8 °F - 64.4 °F 61% 29.84 in 10.0 mi South 26.5 mph 34.5 mph N/A   Clear
2:35 PM 78.8 °F - 64.4 °F 61% 29.83 in 10.0 mi South 23.0 mph 33.4 mph N/A   Clear
2:55 PM 78.8 °F - 64.4 °F 61% 29.83 in 10.0 mi South 21.9 mph 31.1 mph N/A   Clear
3:15 PM 77.0 °F - 64.4 °F 65% 29.83 in 10.0 mi South 17.3 mph 24.2 mph N/A   Clear
3:35 PM 78.8 °F - 64.4 °F 61% 29.82 in 10.0 mi South 17.3 mph 24.2 mph N/A   Clear
3:55 PM 77.0 °F - 66.2 °F 69% 29.82 in 10.0 mi South 19.6 mph 25.3 mph N/A   Clear
4:15 PM 78.8 °F - 66.2 °F 65% 29.80 in 10.0 mi South 16.1 mph 24.2 mph N/A   Clear
4:35 PM 78.8 °F - 66.2 °F 65% 29.80 in 10.0 mi South 16.1 mph 24.2 mph N/A   Clear
4:55 PM 78.8 °F - 66.2 °F 65% 29.80 in 10.0 mi SSW 13.8 mph 20.7 mph N/A   Clear
5:15 PM 80.6 °F 82.7 °F 66.2 °F 61% 29.79 in 10.0 mi South 12.7 mph - N/A   Scattered Clouds
5:35 PM 80.6 °F 82.7 °F 66.2 °F 61% 29.80 in 10.0 mi South 13.8 mph 18.4 mph N/A   Scattered Clouds
5:55 PM 78.8 °F - 66.2 °F 65% 29.80 in 10.0 mi South 17.3 mph 23.0 mph N/A   Scattered Clouds
6:15 PM 78.8 °F - 64.4 °F 61% 29.81 in 10.0 mi South 13.8 mph 26.5 mph N/A   Scattered Clouds
6:35 PM 78.8 °F - 64.4 °F 61% 29.80 in 10.0 mi South 16.1 mph 23.0 mph N/A   Scattered Clouds
6:55 PM 77.0 °F - 64.4 °F 65% 29.81 in 10.0 mi South 17.3 mph 20.7 mph N/A   Scattered Clouds
7:15 PM 77.0 °F - 64.4 °F 65% 29.80 in 10.0 mi South 12.7 mph 16.1 mph N/A   Clear
7:35 PM 77.0 °F - 64.4 °F 65% 29.81 in 10.0 mi South 16.1 mph 21.9 mph N/A   Clear
7:55 PM 77.0 °F - 64.4 °F 65% 29.82 in 10.0 mi South 12.7 mph - N/A   Clear
8:15 PM 75.2 °F - 64.4 °F 69% 29.82 in 10.0 mi South 9.2 mph - N/A   Scattered Clouds
8:35 PM 75.2 °F - 64.4 °F 69% 29.81 in 10.0 mi South 11.5 mph - N/A   Scattered Clouds
8:55 PM 73.4 °F - 64.4 °F 73% 29.82 in 10.0 mi South 9.2 mph - N/A   Clear
9:15 PM 73.4 °F - 64.4 °F 73% 29.83 in 10.0 mi South 6.9 mph - N/A   Clear
9:35 PM 73.4 °F - 64.4 °F 73% 29.84 in 10.0 mi South 8.1 mph - N/A   Clear
9:55 PM 73.4 °F - 64.4 °F 73% 29.84 in 10.0 mi South 8.1 mph - N/A   Clear
10:15 PM 73.4 °F - 64.4 °F 73% 29.84 in 10.0 mi SSE 9.2 mph - N/A   Clear
10:35 PM 71.6 °F - 64.4 °F 78% 29.84 in 10.0 mi SE 8.1 mph - N/A   Clear
10:55 PM 71.6 °F - 64.4 °F 78% 29.82 in 10.0 mi SE 12.7 mph - N/A   Clear
11:15 PM 71.6 °F - 64.4 °F 78% 29.84 in 10.0 mi SSE 8.1 mph - N/A   Clear
11:35 PM 71.6 °F - 64.4 °F 78% 29.85 in 10.0 mi SSE 10.4 mph - N/A   Clear
11:55 PM 71.6 °F - 64.4 °F 78% 29.85 in 10.0 mi SE 5.8 mph - N/A   Clear